Wetbulb
66.86 65.91 64.02 62.94 56.16 55.84 49.91 50.53 54.60 53.11 54.23 58.03 57.51 56.63 55.63 58.45 55.66 52.58 67.28 68.85 69.33 70.55 71.80 72.13 71.60 72.25 71.82 71.88 70.77 70.52 70.12 69.44 68.22 68.59 69.54 68.88 67.90 67.56 67.71 67.04 67.06 66.84 66.83 66.78 66.21 65.74 65.42 67.39 67.52
65.03 63.35 64.18 60.60 53.31 48.86 49.65 53.31 52.14 54.86 58.24 59.21 59.18 58.69 56.58 55.29 62.01 63.90 65.89 68.81 70.22 70.89 71.65 71.89 70.44 71.60 71.50 71.21 70.63 70.56 69.96 69.51 68.77 68.18 69.04 68.30 67.49 67.04 66.85 66.24 66.30 66.22 65.78 65.67 65.59 65.66 65.92 66.47 67.15
64.17 62.06 60.28 56.20 53.85 49.24 49.74 53.31 54.55 56.91 58.53 57.96 58.46 61.24 59.44 58.23 62.82 65.18 67.95 69.77 70.50 70.73 71.70 71.64 70.67 71.43 71.52 71.16 70.71 70.28 70.44 68.98 68.68 69.00 68.44 67.87 67.06 67.34 67.18 65.83 66.53 65.68 66.19 66.91 65.75 65.97 66.08 66.67 66.54
63.27 64.07 59.77 53.50 49.86 50.59 52.88 54.74 56.17 56.65 57.97 59.70 59.53 56.94 61.98 64.62 64.03 66.75 68.80 70.08 70.08 70.64 71.57 70.29 70.93 71.86 71.53 71.24 70.74 70.11 69.97 69.12 68.52 68.88 68.77 68.08 66.91 66.53 67.09 65.83 66.10 65.60 65.16 65.04 66.11 65.69 65.71 66.05 65.94
63.76 61.59 53.94 51.15 50.34 52.17 53.41 54.34 56.91 55.96 56.86 57.67 58.72 56.59 59.05 64.30 67.12 67.47 69.24 69.65 69.70 70.41 71.45 71.58 70.33 71.23 71.63 71.08 70.75 70.51 69.91 69.72 68.63 67.91 69.15 68.25 67.23 66.64 66.34 65.62 65.10 65.47 64.71 65.43 64.96 65.48 64.38 64.91 64.97
58.88 58.27 51.46 48.88 50.10 51.99 53.37 54.57 55.21 56.37 57.29 57.53 57.69 57.57 59.62 65.49 66.27 67.70 69.33 69.45 69.92 70.04 71.06 71.42 67.82 68.86 70.16 70.81 70.58 70.11 69.90 69.58 69.47 68.93 69.39 68.38 67.82 67.13 66.63 66.34 65.76 64.52 64.26 64.41 64.13 64.67 63.50 64.03 63.98
56.12 54.99 50.69 51.06 50.08 50.61 52.39 55.44 54.94 56.00 56.58 56.89 59.77 55.39 60.55 63.90 66.14 68.29 69.16 69.61 69.73 70.12 70.60 71.11 71.13 69.29 66.48 68.11 68.33 68.58 69.14 68.81 68.77 67.96 68.87 68.70 67.72 67.57 67.22 66.78 66.70 64.93 64.34 64.00 64.45 64.16 63.22 63.47 63.04
58.33 56.78 50.81 51.56 50.04 49.25 53.28 54.73 55.80 56.32 56.02 59.77 59.92 55.82 57.02 63.30 66.73 68.10 68.61 68.88 69.27 69.72 70.11 70.38 70.81 70.83 70.68 70.50 65.24 65.83 67.12 67.30 67.58 66.75 65.61 65.21 65.66 65.53 65.48 64.56 65.66 66.37 65.62 64.83 64.80 63.67 62.84 63.07 62.47
56.48 51.85 49.31 50.26 50.53 50.62 54.09 52.92 54.89 56.47 57.60 58.77 59.94 59.83 62.11 64.46 66.42 66.82 66.94 67.46 68.07 68.29 69.07 70.06 70.13 70.42 70.53 70.27 67.65 63.99 64.47 65.21 64.76 64.62 62.92 63.16 65.82 66.64 65.19 63.71 64.56 66.37 65.98 65.68 65.00 63.78 62.91 62.61 61.32
54.92 50.34 48.66 52.98 53.42 52.52 53.52 53.95 54.48 53.86 54.63 55.07 56.98 60.98 63.23 64.32 65.25 65.08 65.45 65.74 66.45 67.09 67.68 69.08 69.66 69.80 69.95 69.15 69.02 68.78 68.59 68.27 67.96 67.07 66.68 65.86 65.99 66.12 65.46 62.69 61.94 64.35 64.22 65.26 65.36 64.40 63.59 60.28 62.47
53.00 49.13 51.04 51.67 53.39 54.55 53.31 53.27 54.84 53.83 52.39 54.65 55.29 56.99 61.14 62.89 63.68 63.96 64.68 65.59 66.26 67.63 68.21 68.42 68.77 69.31 69.57 69.41 69.28 68.99 68.71 68.22 68.00 67.64 67.02 66.15 65.47 65.42 64.83 65.89 65.30 65.18 61.36 64.30 64.64 64.60 63.22 62.32 61.62
49.86 51.89 51.92 52.53 53.56 53.53 52.60 54.31 53.15 53.87 54.45 56.01 57.00 56.65 59.19 60.10 61.21 62.16 62.65 63.76 64.90 66.04 67.15 68.53 69.24 68.26 68.01 69.56 69.08 69.13 68.51 68.15 67.40 66.96 66.69 65.67 64.86 64.77 64.56 64.19 65.31 65.25 65.19 64.60 64.89 64.10 63.68 62.92 62.02
50.30 51.71 52.48 53.04 52.46 52.91 52.97 52.49 52.66 53.56 56.64 56.09 56.22 56.07 57.36 57.64 58.08 59.58 61.04 62.39 63.57 63.94 65.60 67.12 68.48 68.99 68.31 67.34 69.12 68.98 68.81 68.22 67.91 67.32 66.70 65.71 64.83 64.09 64.27 63.83 64.21 64.74 64.92 64.49 64.08 63.95 63.48 62.92 62.13
51.25 50.83 50.55 51.44 51.84 52.08 50.76 51.32 51.56 53.49 55.42 55.23 54.87 55.65 55.47 55.05 56.09 57.23 58.25 58.92 59.89 61.25 62.61 64.56 66.70 67.95 68.66 68.56 68.15 68.32 68.04 68.63 68.26 67.74 67.02 66.06 65.27 64.74 64.14 63.58 63.10 63.22 63.93 64.20 63.83 63.31 63.07 62.93 62.63
50.84 47.58 49.00 50.27 51.10 50.19 51.68 47.69 48.21 53.62 53.62 53.42 52.87 53.86 54.14 55.36 56.35 56.52 57.75 57.84 58.84 59.73 61.14 62.12 63.68 65.96 66.83 67.53 68.23 68.33 67.82 67.65 67.77 67.61 67.68 66.76 65.65 64.84 64.19 63.93 63.46 63.20 63.27 63.21 63.27 63.06 63.17 62.55 62.46
46.67 46.25 40.16 45.65 49.24 49.71 48.93 40.40 48.14 52.47 52.02 51.87 52.57 53.83 54.09 55.01 55.95 57.10 57.42 56.94 57.73 58.29 58.69 60.29 61.39 63.40 64.67 65.68 66.80 67.71 68.31 67.92 67.79 67.81 67.35 66.87 66.20 65.55 65.02 64.20 63.74 64.03 63.28 62.79 62.24 61.92 61.31 61.24 61.15
45.00 37.43 39.19 41.37 48.27 47.60 46.95 42.82 48.31 50.79 50.84 50.69 51.98 52.53 53.18 54.32 55.60 56.66 56.44 56.79 56.85 57.23 57.51 58.05 59.84 61.39 62.95 64.55 65.66 66.64 67.33 66.95 65.87 66.61 66.68 66.45 66.11 65.93 65.20 64.71 64.51 64.36 63.33 62.70 62.08 61.59 61.25 60.31 60.20
36.30 36.68 38.91 38.71 44.64 46.03 45.12 44.46 48.09 50.45 49.78 49.50 50.81 51.81 52.53 53.27 54.18 55.32 55.16 54.81 55.06 55.95 56.64 57.15 57.97 59.44 61.25 63.16 64.32 65.31 65.95 65.63 65.27 65.21 65.31 65.29 64.73 65.20 65.09 64.97 64.83 64.44 63.20 62.67 62.42 61.41 61.52 60.56 59.96
41.04 39.56 38.02 41.32 44.91 43.33 42.60 43.18 45.51 48.58 49.10 49.10 50.09 50.91 51.76 52.37 54.32 53.93 52.50 53.03 53.23 54.10 54.15 54.85 55.54 57.18 58.90 61.26 62.25 62.93 63.09 64.26 64.61 64.67 64.84 64.64 64.23 63.41 64.45 64.78 64.83 64.24 62.60 62.76 62.94 62.13 60.75 60.01 59.55
41.14 39.06 38.38 41.29 44.07 43.52 42.67 42.03 45.81 47.30 47.81 49.34 49.80 50.39 51.00 51.88 51.74 50.32 50.83 51.37 51.81 52.06 53.05 54.01 54.37 55.24 56.66 59.51 61.51 62.34 62.62 63.80 64.53 65.13 64.97 64.05 64.21 63.54 62.58 63.26 63.52 63.56 61.58 61.90 62.43 61.54 60.32 59.76 60.19
41.44 39.35 38.95 38.31 41.92 43.97 42.11 40.18 42.42 45.72 46.58 48.20 49.02 50.27 50.64 48.95 48.19 48.58 49.40 49.42 50.17 49.82 50.62 51.90 53.55 55.73 56.61 56.45 58.95 61.02 62.72 63.13 62.89 63.62 64.10 64.09 63.84 63.66 62.83 62.36 62.62 63.01 61.89 60.38 61.42 61.67 59.68 58.44 59.22
37.80 43.01 41.60 39.87 38.77 34.40 41.16 33.04 40.10 43.23 44.34 46.10 47.87 49.24 49.31 48.36 47.71 47.68 47.79 47.62 47.58 47.79 49.47 49.44 50.21 51.74 53.98 59.27 58.18 59.64 59.80 59.48 61.31 62.48 63.75 64.32 64.90 63.78 63.43 62.93 62.15 62.12 62.25 60.44 60.85 60.80 60.04 58.84 57.33
39.86 43.41 41.91 41.19 38.66 37.53 37.61 32.59 38.22 40.47 39.89 43.38 46.46 48.09 47.75 47.83 47.52 46.28 45.92 45.68 46.18 46.65 47.36 47.43 47.64 48.06 49.77 52.53 58.18 60.59 60.41 61.42 62.11 62.62 62.89 63.61 64.38 64.53 64.31 63.62 62.80 61.86 61.66 61.45 60.55 59.87 58.87 59.01 57.95
43.39 40.90 39.96 40.06 38.15 30.73 35.37 34.10 35.76 39.11 41.29 44.19 46.72 46.61 46.62 46.37 45.84 45.14 44.63 44.76 44.41 45.10 45.36 46.06 45.41 44.70 46.52 48.40 49.78 51.55 53.09 55.46 56.61 56.99 60.21 61.66 62.81 63.58 63.41 63.64 63.51 63.08 61.92 61.62 60.92 60.06 59.37 58.62 58.13
42.23 38.01 29.81 28.57 28.89 26.94 34.92 34.06 36.91 41.23 43.49 44.41 45.48 45.29 45.72 45.42 44.49 43.45 42.58 42.26 41.87 41.85 42.46 43.35 42.99 41.64 43.18 44.98 46.14 47.24 48.81 50.29 50.32 49.99 50.20 51.25 52.51 56.02 58.83 61.43 62.63 62.72 62.47 61.62 61.12 60.54 59.98 59.39 58.35
39.15 37.24 29.92 22.73 24.89 28.74 32.79 29.74 36.25 43.72 45.74 45.42 45.03 46.15 44.42 43.39 42.68 41.39 40.53 40.42 39.86 39.91 40.31 40.79 41.12 40.01 40.20 41.44 43.24 44.56 45.55 47.15 46.51 46.58 47.16 47.89 48.55 48.39 49.58 50.23 51.98 59.19 62.15 61.67 60.85 60.44 60.40 60.26 59.08
37.61 34.80 39.62 30.36 26.51 27.85 31.66 35.02 38.78 42.04 42.46 43.42 43.51 43.70 42.91 42.15 41.54 40.40 39.73 39.25 38.41 37.97 38.34 38.10 38.34 39.28 38.24 39.04 40.79 41.52 42.11 43.04 42.14 43.07 43.98 44.51 45.12 45.19 45.84 47.29 48.08 50.55 51.79 58.26 60.31 59.86 59.99 60.09 59.52
39.38 41.23 30.85 32.65 24.64 22.62 29.02 30.79 32.84 36.48 39.73 43.14 42.12 43.15 42.27 41.13 39.59 38.61 38.08 37.04 36.77 36.28 36.39 37.27 36.01 36.76 35.91 36.93 38.73 39.51 39.74 40.45 39.65 39.90 39.72 41.03 41.77 41.92 42.26 43.20 44.86 46.69 48.59 51.07 53.13 57.46 59.58 59.39 59.28
34.93 34.34 35.24 35.13 32.50 25.88 24.17 30.13 40.14 39.80 40.17 40.41 42.07 43.77 42.04 40.26 38.73 37.69 36.81 35.86 34.73 34.75 34.29 35.04 33.60 34.32 33.35 34.37 36.14 36.61 37.62 37.21 37.05 37.09 37.41 38.36 39.38 39.14 39.55 40.58 41.65 42.81 43.64 45.75 47.26 49.57 51.65 54.32 57.81
39.99 35.94 36.07 29.56 27.90 31.06 29.84 30.27 39.65 41.23 42.33 42.54 42.47 43.35 41.62 39.65 37.20 35.88 34.95 34.34 33.24 32.23 32.21 32.64 31.63 31.66 31.30 32.42 33.49 33.88 35.30 34.06 33.79 34.18 34.85 35.81 35.96 36.82 37.28 38.23 38.98 40.02 40.96 42.05 42.97 44.31 48.27 49.04 50.09
MSLP
1014.58 1013.94 1013.47 1012.76 1012.60 1012.60 1013.69 1015.07 1015.69 1015.69 1015.87 1016.56 1016.68 1016.32 1016.54 1017.01 1017.14 1017.96 1018.98 1019.21 1019.35 1019.49 1019.83 1020.31 1020.62 1020.74 1021.00 1021.17 1021.38 1021.50 1021.55 1021.63 1021.82 1021.88 1021.81 1021.85 1021.94 1021.99 1021.92 1021.88 1021.88 1021.92 1021.86 1021.88 1022.01 1021.92 1021.79 1022.00 1021.94
1014.49 1013.69 1013.03 1012.54 1012.40 1012.73 1014.25 1015.41 1015.62 1016.16 1016.56 1016.95 1016.92 1016.95 1016.85 1017.37 1018.05 1018.48 1018.79 1019.32 1019.14 1019.42 1019.81 1020.11 1020.89 1020.92 1021.13 1021.44 1021.58 1021.71 1021.81 1021.86 1021.87 1021.99 1022.07 1022.07 1022.13 1022.16 1022.18 1022.31 1022.27 1022.23 1022.19 1022.21 1022.22 1022.11 1022.16 1022.12 1022.09
1014.47 1013.97 1012.81 1012.91 1013.23 1013.59 1014.73 1015.73 1016.01 1016.61 1016.89 1016.71 1016.76 1017.24 1017.41 1017.76 1018.32 1018.30 1018.90 1019.17 1019.31 1019.51 1019.75 1020.11 1020.71 1021.11 1021.22 1021.42 1021.60 1021.83 1021.91 1022.02 1022.10 1022.07 1022.14 1022.34 1022.42 1022.33 1022.29 1022.50 1022.56 1022.57 1022.55 1022.50 1022.37 1022.48 1022.42 1022.36 1022.21
1014.41 1013.54 1013.90 1013.48 1014.20 1015.51 1015.64 1016.12 1016.50 1016.55 1016.77 1016.82 1016.90 1016.92 1018.07 1018.79 1018.67 1018.78 1019.10 1019.19 1019.35 1019.63 1019.97 1020.59 1020.76 1020.94 1021.16 1021.34 1021.59 1021.73 1021.85 1022.03 1022.16 1022.23 1022.31 1022.34 1022.56 1022.69 1022.63 1022.72 1022.69 1022.72 1022.80 1022.72 1022.66 1022.69 1022.72 1022.67 1022.54
1014.52 1013.91 1013.78 1014.51 1015.39 1016.15 1016.58 1016.87 1016.88 1016.57 1016.66 1016.77 1016.99 1017.25 1017.87 1018.85 1019.27 1019.31 1019.39 1019.47 1019.65 1019.78 1020.04 1020.48 1020.95 1021.12 1021.32 1021.41 1021.52 1021.66 1021.78 1021.92 1022.07 1022.16 1022.29 1022.41 1022.59 1022.70 1022.82 1022.97 1022.96 1022.97 1022.91 1022.94 1022.94 1023.04 1023.01 1022.95 1022.81
1014.45 1014.73 1014.26 1014.79 1015.84 1016.71 1017.09 1017.30 1017.03 1016.92 1016.96 1017.08 1017.03 1017.28 1018.16 1019.07 1019.32 1019.58 1019.63 1019.64 1019.77 1019.95 1020.25 1020.45 1021.02 1021.20 1021.36 1021.49 1021.56 1021.68 1021.71 1021.79 1021.95 1022.11 1022.26 1022.41 1022.58 1022.85 1022.89 1022.95 1023.03 1023.18 1023.19 1023.17 1023.17 1023.30 1023.32 1023.24 1023.07
1015.38 1015.12 1015.35 1015.63 1016.35 1016.85 1017.41 1017.69 1017.26 1017.18 1017.25 1017.47 1017.85 1017.42 1018.40 1018.90 1019.50 1019.80 1019.83 1019.75 1020.03 1020.16 1020.32 1020.47 1020.70 1021.14 1021.50 1021.59 1021.63 1021.75 1021.80 1021.78 1021.83 1021.90 1022.11 1022.42 1022.66 1022.66 1022.87 1023.05 1023.15 1023.26 1023.37 1023.42 1023.49 1023.63 1023.59 1023.43 1023.30
1016.77 1016.28 1016.25 1016.46 1016.52 1017.23 1017.77 1017.76 1017.96 1017.59 1017.79 1018.21 1018.27 1017.83 1018.32 1019.27 1019.83 1020.00 1020.05 1020.10 1020.16 1020.23 1020.30 1020.40 1020.65 1020.82 1020.91 1021.06 1021.56 1021.72 1021.87 1021.86 1021.82 1021.91 1021.94 1022.07 1022.37 1022.70 1022.80 1022.94 1023.09 1023.22 1023.43 1023.55 1023.73 1023.81 1023.77 1023.63 1023.49
1017.69 1016.77 1016.57 1016.96 1017.14 1017.57 1017.99 1017.80 1018.23 1018.41 1017.99 1018.21 1018.50 1018.61 1019.34 1019.77 1020.09 1020.08 1020.13 1020.18 1020.17 1020.35 1020.47 1020.40 1020.53 1020.67 1020.79 1020.94 1021.12 1021.67 1021.76 1021.86 1021.94 1021.96 1022.09 1022.21 1021.88 1021.91 1022.49 1022.84 1022.94 1023.14 1023.32 1023.49 1023.68 1023.80 1023.79 1023.74 1023.69
1017.64 1017.26 1017.49 1017.81 1017.85 1017.95 1018.31 1018.14 1018.18 1018.16 1018.07 1018.28 1018.49 1018.98 1019.48 1019.80 1019.93 1019.81 1019.71 1019.55 1019.91 1020.10 1020.46 1020.44 1020.36 1020.38 1020.59 1020.82 1020.95 1021.09 1021.04 1021.23 1021.30 1021.53 1021.65 1021.79 1021.81 1021.81 1021.86 1022.14 1022.68 1022.92 1023.12 1023.29 1023.47 1023.70 1023.82 1023.85 1023.13
1018.40 1017.80 1018.36 1018.61 1018.63 1018.62 1018.66 1018.60 1018.75 1018.29 1018.10 1018.26 1018.39 1018.80 1019.19 1019.46 1019.55 1019.55 1019.40 1019.31 1019.22 1019.35 1019.83 1020.12 1020.13 1020.24 1020.27 1020.38 1020.52 1020.56 1020.72 1020.90 1020.97 1021.09 1021.36 1021.60 1021.78 1021.92 1022.05 1021.83 1022.12 1022.31 1022.69 1022.63 1022.93 1023.13 1023.32 1023.16 1023.13
1018.70 1018.91 1018.97 1019.20 1019.45 1019.32 1019.16 1019.19 1018.92 1018.72 1018.45 1018.83 1018.81 1019.21 1019.25 1019.11 1019.12 1018.99 1018.90 1018.79 1018.99 1019.11 1019.22 1019.28 1019.41 1019.98 1020.18 1019.93 1020.02 1020.11 1020.31 1020.50 1020.67 1020.87 1021.05 1021.15 1021.45 1021.67 1021.76 1021.83 1021.83 1021.92 1021.76 1022.02 1022.27 1022.35 1022.54 1022.77 1022.91
1019.17 1019.33 1019.67 1019.87 1019.96 1019.87 1019.87 1019.52 1019.19 1018.90 1018.80 1019.21 1019.27 1019.42 1019.28 1019.25 1019.12 1018.87 1018.81 1018.67 1018.51 1018.46 1018.48 1018.63 1018.80 1018.97 1019.51 1019.86 1019.46 1019.59 1019.66 1019.89 1020.02 1020.23 1020.50 1020.77 1020.81 1020.94 1021.11 1021.32 1021.45 1021.55 1021.62 1021.57 1021.58 1021.82 1021.96 1022.18 1022.35
1019.72 1019.90 1020.13 1020.35 1020.23 1020.12 1019.99 1019.79 1019.83 1019.02 1019.06 1019.08 1019.24 1019.20 1019.31 1019.33 1019.09 1018.85 1018.57 1018.34 1018.24 1018.03 1017.82 1017.88 1018.14 1018.42 1018.52 1018.74 1019.08 1018.93 1019.21 1019.04 1019.29 1019.46 1019.69 1020.09 1020.23 1020.47 1020.67 1020.78 1020.97 1021.05 1021.15 1021.22 1021.35 1021.30 1021.41 1021.51 1021.62
1020.59 1020.55 1020.69 1020.55 1020.46 1020.30 1020.24 1019.78 1019.29 1018.91 1019.26 1019.04 1019.15 1019.07 1019.15 1019.02 1018.79 1018.46 1018.13 1018.19 1018.07 1017.84 1017.72 1017.60 1017.69 1017.74 1017.95 1017.95 1018.02 1018.15 1018.46 1018.65 1018.64 1018.82 1019.05 1019.26 1019.62 1019.85 1020.13 1020.27 1020.40 1020.54 1020.75 1020.97 1020.97 1021.03 1021.09 1021.02 1020.97
1020.94 1021.12 1020.75 1020.30 1020.58 1020.57 1020.48 1019.16 1019.44 1019.38 1019.26 1019.04 1019.05 1018.88 1018.91 1018.47 1018.19 1017.95 1018.07 1018.09 1017.83 1017.68 1017.50 1017.38 1017.36 1017.29 1017.27 1017.25 1017.25 1017.27 1017.42 1017.89 1017.99 1018.15 1018.54 1018.80 1018.98 1019.12 1019.29 1019.47 1019.60 1019.81 1020.10 1020.39 1020.55 1020.52 1020.56 1020.58 1020.51
1021.16 1020.70 1020.77 1020.87 1020.89 1020.71 1020.45 1019.36 1019.60 1019.66 1019.43 1019.12 1018.75 1018.52 1018.39 1017.97 1017.64 1017.60 1017.78 1017.85 1017.73 1017.57 1017.30 1016.98 1016.81 1016.60 1016.63 1016.59 1016.69 1016.77 1016.93 1017.20 1017.58 1017.56 1017.59 1017.80 1018.15 1018.38 1018.61 1018.66 1018.73 1019.12 1019.39 1019.48 1019.64 1019.91 1020.16 1020.09 1020.09
1020.40 1020.72 1020.89 1020.57 1020.96 1021.02 1020.61 1019.79 1019.66 1019.51 1019.39 1019.02 1018.63 1018.28 1017.80 1017.47 1017.31 1017.65 1018.00 1017.98 1017.77 1017.55 1017.26 1016.89 1016.62 1016.39 1016.27 1016.22 1016.20 1016.24 1016.23 1016.54 1016.82 1016.94 1017.02 1017.29 1017.68 1017.93 1018.04 1017.93 1017.94 1018.31 1018.57 1018.61 1018.74 1018.80 1019.04 1019.41 1019.38
1020.52 1020.68 1020.58 1021.13 1021.12 1021.18 1020.57 1019.99 1019.26 1019.04 1018.91 1018.64 1018.11 1017.59 1017.26 1017.20 1017.41 1017.96 1018.20 1018.21 1018.09 1017.88 1017.55 1017.07 1016.60 1016.19 1015.97 1015.71 1015.66 1015.64 1015.48 1015.94 1016.15 1016.25 1016.47 1016.74 1017.05 1017.43 1017.40 1017.28 1017.19 1017.48 1017.72 1017.83 1018.02 1018.19 1018.39 1018.49 1019.08
1020.84 1020.81 1021.06 1021.35 1021.31 1021.17 1020.34 1019.55 1018.98 1018.26 1018.08 1017.71 1017.23 1016.90 1016.99 1017.21 1017.73 1018.22 1018.47 1018.51 1018.42 1018.27 1017.94 1017.51 1016.99 1016.41 1015.99 1015.64 1015.36 1015.23 1015.05 1015.10 1015.09 1015.01 1015.50 1016.04 1016.39 1016.73 1017.06 1016.87 1016.84 1016.89 1017.21 1017.42 1017.47 1017.69 1017.69 1017.82 1018.15
1020.79 1020.80 1021.08 1021.43 1021.33 1020.94 1020.29 1018.36 1017.72 1017.21 1017.27 1017.20 1017.10 1017.08 1017.35 1017.65 1017.97 1018.43 1018.81 1018.98 1019.02 1018.81 1018.48 1017.92 1017.44 1016.73 1016.21 1015.84 1015.45 1015.18 1015.18 1015.04 1014.99 1014.87 1014.95 1015.23 1015.65 1015.97 1016.32 1016.53 1016.50 1016.41 1016.58 1016.74 1016.92 1016.94 1017.08 1016.97 1017.22
1020.63 1021.09 1021.47 1021.70 1021.70 1021.04 1020.76 1018.77 1017.61 1017.31 1016.72 1016.84 1016.61 1016.77 1017.18 1017.90 1018.58 1019.01 1019.25 1019.47 1019.57 1019.51 1019.20 1018.63 1018.12 1017.48 1016.79 1015.95 1015.48 1015.29 1014.99 1014.74 1014.52 1014.54 1014.65 1014.80 1014.95 1015.32 1015.52 1015.71 1015.89 1015.98 1016.05 1016.16 1016.20 1016.32 1016.32 1016.46 1016.30
1020.66 1021.16 1021.53 1021.71 1021.84 1021.49 1020.79 1020.75 1017.12 1017.31 1016.45 1016.18 1016.20 1016.67 1017.50 1018.23 1018.83 1019.45 1019.84 1020.07 1020.27 1020.21 1019.83 1019.38 1018.83 1018.30 1017.75 1017.11 1016.25 1015.61 1015.43 1015.09 1014.85 1014.73 1014.73 1014.69 1014.60 1014.59 1014.70 1014.83 1015.01 1015.23 1015.36 1015.41 1015.57 1015.63 1015.71 1015.61 1015.52
1021.19 1021.82 1022.27 1022.21 1022.17 1021.27 1020.38 1020.04 1015.99 1016.03 1015.83 1015.56 1016.01 1017.00 1017.73 1018.47 1019.27 1019.88 1020.39 1020.60 1020.76 1020.77 1020.45 1019.96 1019.36 1019.07 1018.64 1018.05 1017.58 1017.10 1016.69 1016.20 1015.76 1015.62 1015.23 1014.84 1014.47 1014.34 1014.31 1014.27 1014.21 1014.19 1014.44 1014.59 1014.69 1014.77 1014.78 1014.78 1014.67
1020.97 1021.46 1021.89 1022.40 1022.12 1020.34 1019.65 1019.24 1016.01 1016.10 1015.72 1015.89 1016.13 1017.33 1018.10 1018.93 1019.73 1020.31 1020.64 1020.90 1021.10 1021.10 1020.91 1020.55 1020.23 1019.93 1019.66 1019.14 1018.60 1018.18 1017.73 1017.24 1016.89 1016.67 1016.35 1016.07 1015.79 1015.39 1014.99 1014.52 1014.06 1013.95 1013.89 1013.93 1013.97 1013.99 1013.92 1013.89 1013.78
1020.30 1020.28 1020.11 1020.47 1020.43 1019.68 1020.08 1017.91 1015.81 1015.48 1015.36 1015.97 1016.55 1017.32 1018.57 1019.42 1020.26 1020.79 1021.33 1021.46 1021.64 1021.71 1021.57 1021.38 1021.04 1020.78 1020.62 1020.20 1019.63 1019.22 1018.78 1018.21 1017.89 1017.59 1017.22 1016.83 1016.54 1016.20 1015.88 1015.46 1015.04 1014.36 1013.51 1013.56 1013.57 1013.35 1013.16 1012.96 1012.83
1020.00 1019.60 1019.86 1020.63 1021.10 1020.27 1018.58 1017.28 1016.50 1015.71 1015.65 1016.24 1016.73 1017.80 1018.69 1019.74 1020.65 1021.18 1021.76 1022.16 1022.33 1022.44 1022.40 1022.26 1021.99 1021.73 1021.53 1021.16 1020.71 1020.24 1019.84 1019.31 1019.03 1018.60 1018.18 1017.78 1017.31 1016.95 1016.44 1015.97 1015.49 1014.94 1014.43 1013.83 1013.20 1012.83 1012.33 1012.20 1012.03
1019.21 1019.43 1020.30 1020.63 1019.82 1018.94 1016.90 1016.37 1014.46 1014.62 1014.88 1015.40 1016.60 1017.56 1018.87 1019.92 1020.88 1021.59 1022.12 1022.60 1022.99 1023.13 1023.06 1022.93 1022.83 1022.43 1022.32 1022.00 1021.52 1021.04 1020.66 1020.23 1019.86 1019.46 1019.04 1018.63 1018.19 1017.55 1017.14 1016.61 1015.96 1015.49 1014.95 1014.30 1013.64 1012.79 1012.03 1011.51 1011.14
1019.33 1018.97 1019.06 1019.00 1018.88 1017.52 1016.07 1014.05 1013.47 1013.18 1013.99 1014.74 1015.87 1017.12 1018.59 1019.77 1020.93 1021.78 1022.48 1023.03 1023.43 1023.59 1023.52 1023.40 1023.43 1023.22 1023.05 1022.72 1022.16 1021.67 1021.18 1020.78 1020.47 1020.06 1019.68 1019.36 1018.83 1018.21 1017.57 1017.07 1016.62 1016.10 1015.72 1015.04 1014.07 1013.46 1012.24 1011.81 1010.98
1017.90 1017.59 1017.91 1017.43 1017.49 1017.17 1016.26 1013.28 1013.63 1013.63 1013.85 1014.53 1015.49 1016.98 1018.56 1019.86 1021.14 1022.11 1022.82 1023.31 1023.69 1023.94 1023.99 1023.90 1024.02 1023.79 1023.61 1023.18 1022.70 1022.27 1021.76 1021.38 1021.02 1020.62 1020.28 1019.86 1019.21 1018.70 1018.27 1017.37 1016.98 1016.55 1015.87 1015.67 1014.67 1013.96 1013.50 1011.98 1011.54
Wind_Speed
17 8 2 2 3 2 6 5 2 3 3 3 3 2 8 6 6 5 3 5 5 8 8 10 8 11 11 11 10 9 9 10 7 6 10 11 10 8 9 9 9 8 10 11 11 9 7 9 10
12 5 1 1 1 5 7 3 5 6 6 3 3 2 2 6 2 4 8 3 10 10 9 8 6 9 11 10 9 8 8 7 8 7 7 9 9 8 9 9 7 8 8 9 9 9 4 7 9
6 4 2 2 1 6 7 4 6 6 2 1 3 4 2 4 2 5 4 9 10 10 9 9 9 9 10 10 9 6 7 7 6 8 9 7 6 6 9 7 6 6 7 8 10 5 6 7 6
5 1 3 3 11 6 6 5 3 3 3 3 2 4 4 4 2 1 5 10 11 9 8 10 9 10 11 10 8 8 8 8 7 5 8 9 7 6 5 7 7 6 5 6 9 4 6 6 5
3 0 3 6 8 5 4 3 1 4 3 5 5 5 4 2 3 2 8 8 9 9 8 10 8 8 8 9 9 8 7 9 7 6 7 10 8 8 6 6 6 6 7 7 5 5 3 3 4
1 3 5 6 7 5 4 3 1 4 3 4 2 2 4 2 0 4 6 8 7 7 7 7 8 7 8 8 8 7 7 7 8 6 8 9 9 8 7 7 6 5 5 6 4 2 1 0 2
3 3 4 8 8 5 3 2 2 4 3 6 3 2 4 4 2 5 6 5 6 6 7 7 8 9 6 6 6 7 7 7 8 6 8 9 9 9 8 8 6 7 7 5 5 4 4 2 1
2 1 6 2 8 4 2 2 2 2 5 1 3 4 5 4 3 5 5 5 5 6 7 7 8 8 9 9 7 6 6 6 8 8 7 8 7 8 9 8 8 8 8 7 5 5 5 4 3
1 2 5 5 7 6 3 3 2 1 2 2 3 3 3 3 4 5 6 6 6 6 7 8 8 9 9 8 6 7 7 6 6 7 7 7 7 9 9 8 5 9 9 8 8 7 6 3 3
2 3 3 2 4 6 4 2 2 3 5 3 3 4 4 5 4 5 7 6 9 9 8 9 10 10 9 7 9 9 8 8 9 9 9 8 8 8 7 7 8 9 10 10 10 8 5 5 6
2 3 6 5 3 3 3 3 1 2 3 2 4 4 3 2 3 5 6 8 8 7 8 11 11 11 11 9 7 5 5 6 6 10 9 8 7 6 7 6 7 8 9 7 9 8 8 8 6
5 4 5 6 4 3 3 2 2 3 2 2 2 3 3 1 2 6 7 8 7 9 11 11 12 11 12 9 8 8 7 7 7 8 11 8 6 7 7 6 7 8 7 9 8 6 8 9 9
6 4 4 4 3 3 3 5 3 6 5 1 3 3 3 3 5 7 8 10 10 11 11 11 12 13 12 12 9 9 9 8 10 9 11 9 9 9 8 8 8 8 8 8 9 9 9 9 10
4 3 2 1 4 3 5 4 5 5 3 3 3 4 3 4 5 8 9 10 10 12 13 11 11 13 12 12 13 10 10 11 10 10 11 14 10 9 9 9 9 9 9 9 9 9 9 9 10
5 7 1 5 5 5 4 11 11 10 5 7 4 4 4 8 10 12 12 12 12 12 14 13 12 10 13 14 13 11 11 10 10 10 13 14 13 13 12 9 9 9 9 12 10 11 10 10 10
5 4 7 7 8 4 6 12 2 7 8 8 7 7 8 12 13 13 11 12 13 13 13 13 11 12 12 13 11 10 10 10 11 10 10 14 15 16 13 11 11 11 9 9 10 10 10 11 11
6 4 11 3 7 4 12 7 5 6 5 8 11 11 12 14 15 12 12 11 11 11 12 12 12 13 13 12 10 11 11 9 9 9 10 14 15 15 14 11 11 12 10 10 10 10 11 11 11
10 8 6 7 7 7 9 15 8 11 11 14 13 13 15 15 15 12 11 10 10 10 10 11 10 12 11 9 9 8 9 8 9 10 10 13 10 14 13 13 14 12 11 11 11 14 12 11 11
7 8 7 5 5 5 13 14 15 13 13 15 16 16 15 15 11 7 7 8 9 9 10 11 11 10 7 7 7 8 9 8 10 10 12 11 10 11 15 12 13 12 12 13 13 13 14 11 10
7 7 6 2 4 4 9 14 15 19 15 18 18 17 14 7 5 4 7 9 10 11 12 11 11 10 8 6 6 7 6 7 8 8 10 13 11 11 11 12 12 13 10 15 14 14 11 11 10
14 14 10 8 3 6 10 15 9 8 8 12 14 12 6 2 1 5 7 9 10 12 12 12 12 12 8 9 7 7 6 7 7 7 8 9 11 11 11 12 11 11 9 9 12 13 13 10 9
16 10 6 5 3 5 3 8 7 8 12 8 9 10 5 6 5 5 6 9 10 11 11 12 13 13 12 9 5 7 6 7 6 6 7 7 10 12 12 12 12 11 9 10 11 10 12 12 11
6 11 11 8 8 10 12 5 5 4 14 16 13 5 7 7 7 7 6 6 8 10 10 11 13 15 15 13 12 5 5 5 5 6 8 9 9 10 12 12 12 11 9 11 12 12 12 11 11
11 8 4 3 2 10 13 12 8 12 12 12 11 7 10 8 7 7 6 6 7 9 10 11 13 15 15 14 14 13 11 9 7 9 8 7 6 6 8 12 12 11 11 11 11 13 14 12 13
14 14 4 6 7 9 0 14 17 7 13 13 9 11 10 8 6 5 6 7 8 11 12 11 13 14 14 14 14 14 12 11 9 9 7 9 8 8 9 11 11 10 12 12 11 12 13 13 12
18 14 6 8 8 5 3 13 6 12 13 3 3 12 11 9 7 6 6 7 8 9 11 11 12 13 14 13 13 12 13 8 8 9 7 7 7 8 11 11 12 13 15 12 11 10 11 12 12
9 15 12 2 2 3 8 8 11 10 13 11 11 13 11 9 7 6 5 6 7 8 9 10 11 11 12 12 11 12 12 12 11 11 10 8 9 10 12 12 14 13 12 13 12 10 12 12 12
10 10 6 6 9 9 11 15 14 10 16 17 12 13 11 9 8 6 5 5 5 6 7 8 10 10 12 11 10 10 11 11 11 10 12 12 11 11 12 14 14 14 15 15 13 10 11 12 11
9 13 8 5 9 9 8 10 10 18 16 16 15 17 15 12 9 7 6 5 5 5 7 7 10 10 11 10 10 10 10 11 11 10 11 12 12 13 12 13 13 13 15 15 14 16 12 14 14
18 17 19 10 9 11 13 16 7 7 11 12 14 16 14 12 10 7 6 4 3 5 6 7 9 9 10 11 11 11 11 12 12 12 13 13 13 12 13 13 12 14 13 15 14 16 17 15 15
Wind_Direction
320 323 279 222 201 104 90 80 4 86 107 51 79 358 57 24 0 38 66 131 140 142 140 161 148 146 147 136 138 139 140 131 118 138 134 129 117 120 125 117 117 110 118 118 113 102 84 72 100
320 319 248 87 184 144 94 82 78 64 89 101 115 122 94 75 51 96 139 133 152 148 151 153 146 153 142 142 146 149 140 141 139 135 130 121 132 147 132 120 130 116 124 126 127 123 72 69 82
313 326 328 51 93 103 110 100 90 100 113 31 130 24 32 54 82 139 98 152 157 155 156 143 153 148 147 151 156 161 154 154 169 167 147 148 145 142 136 139 128 128 130 134 138 113 90 66 58
327 169 122 66 100 81 86 97 85 132 119 49 30 85 118 21 347 4 146 160 162 157 164 143 158 156 157 158 170 169 169 164 171 196 161 144 153 159 153 156 146 143 144 150 152 106 77 58 33
356 310 93 101 90 96 87 43 46 56 77 42 341 89 68 88 13 147 152 167 165 166 169 164 166 164 163 170 170 167 166 173 172 208 198 160 160 170 171 172 170 159 169 164 169 72 54 52 20
44 301 139 131 115 106 92 15 4 66 48 60 56 80 70 15 151 144 165 173 171 177 176 174 173 177 175 171 169 172 177 174 165 195 168 170 167 179 203 185 188 190 201 186 187 183 229 76 48
24 356 92 132 125 133 91 353 51 85 109 59 6 71 75 102 66 142 167 174 182 194 191 190 189 189 197 198 192 198 198 186 179 171 171 178 192 184 199 185 214 198 217 213 196 223 247 266 14
21 342 143 151 161 115 74 101 47 24 76 54 329 55 80 53 111 145 165 187 203 204 213 209 206 206 208 205 201 204 208 207 199 189 176 180 201 210 201 192 208 195 198 220 213 235 252 264 301
304 206 164 150 170 124 114 155 91 47 126 75 30 31 35 85 147 168 182 205 213 217 227 226 224 223 227 230 212 211 214 218 219 208 195 183 213 195 200 208 208 189 194 203 213 230 240 256 278
263 225 133 80 119 128 103 83 92 190 140 112 117 97 82 148 177 201 219 224 220 228 223 235 231 229 230 230 230 224 219 220 213 221 217 221 219 216 214 199 197 210 200 206 206 225 227 233 243
158 206 146 155 130 127 95 105 15 173 143 114 124 87 70 157 208 241 256 261 265 242 228 226 226 233 234 232 230 226 225 227 225 220 219 224 229 217 219 218 205 215 205 224 212 213 232 241 256
189 150 162 147 148 146 155 115 183 269 93 43 119 39 330 318 301 298 291 288 278 258 256 244 229 225 231 236 227 234 228 223 225 226 221 214 217 227 236 233 226 220 217 225 233 237 238 242 244
210 165 153 123 155 182 150 214 252 242 185 188 241 269 232 302 306 294 296 296 291 278 268 254 243 232 225 230 235 238 235 226 230 226 222 219 222 219 222 229 230 229 231 228 226 233 237 238 244
158 142 117 128 179 229 229 211 192 221 235 202 225 222 249 283 294 290 279 283 288 292 286 279 252 244 240 233 232 231 232 235 227 227 224 220 224 226 225 223 227 231 233 235 238 237 237 241 242
126 159 215 223 223 235 195 243 226 231 228 251 233 263 298 291 288 278 286 296 291 284 286 287 286 259 248 243 240 232 232 230 232 232 227 223 221 226 229 231 228 228 232 239 237 240 245 249 244
170 199 215 202 224 207 215 246 138 200 199 215 253 259 272 278 277 283 299 297 298 301 289 285 276 261 251 248 245 241 238 236 234 231 230 232 228 226 227 231 232 229 225 229 237 238 242 244 246
195 194 214 217 204 183 205 257 200 187 186 273 275 283 282 276 279 292 317 317 308 298 293 286 277 265 260 252 250 246 247 237 239 238 234 228 230 229 231 232 234 228 228 228 228 237 243 249 248
199 210 200 202 176 214 210 249 229 226 272 270 274 274 270 274 284 324 327 332 323 312 299 291 285 280 273 261 252 248 245 239 238 236 235 235 229 231 230 236 235 227 228 231 227 229 228 236 248
218 216 208 177 183 219 241 257 269 265 261 265 262 258 259 270 308 331 6 1 349 352 334 319 301 290 276 252 244 241 245 233 240 236 238 234 228 223 233 239 241 230 227 233 233 233 234 233 236
196 199 201 196 181 243 271 268 271 266 254 245 255 261 269 278 302 23 19 13 10 5 359 351 332 312 291 259 250 251 256 246 253 249 236 242 230 222 231 242 244 242 233 240 239 236 235 238 222
224 236 244 257 327 234 295 280 256 260 267 248 248 252 267 273 78 36 35 31 19 18 9 4 0 354 333 296 270 254 250 259 260 253 253 249 237 230 226 235 245 243 227 230 237 237 223 233 221
224 207 204 188 270 257 48 298 253 255 272 253 232 230 228 153 116 73 45 37 29 21 16 17 17 16 5 359 281 264 268 271 281 280 277 263 247 243 239 235 237 244 238 230 237 233 230 228 237
211 163 197 219 246 282 249 252 242 264 252 251 248 203 156 137 125 107 77 51 36 24 21 24 28 28 23 25 17 352 314 310 307 304 296 281 267 252 250 237 239 239 237 236 237 237 230 231 231
146 116 89 135 227 251 231 216 232 214 238 231 244 172 152 144 120 102 84 66 48 34 27 28 28 31 27 29 30 30 27 19 22 6 346 323 300 288 262 257 253 244 239 235 236 235 236 231 234
173 171 181 198 204 245 199 213 256 207 248 237 196 171 157 143 129 102 74 56 40 32 28 26 25 28 22 24 28 27 22 26 30 15 2 7 3 353 345 312 276 267 253 243 239 240 239 236 234
199 188 190 203 212 229 150 227 245 224 230 200 183 176 155 144 130 100 64 54 42 33 29 24 26 24 19 19 18 20 20 18 18 16 7 9 359 353 346 335 344 319 280 259 250 248 247 245 239
180 216 215 301 80 245 210 238 266 232 224 208 157 169 163 153 146 119 93 62 46 36 30 24 17 18 18 15 12 16 16 16 8 5 3 359 0 350 349 348 343 333 334 315 266 256 253 246 243
204 164 178 200 223 232 234 244 241 193 214 210 197 191 177 158 148 133 112 83 58 42 30 29 20 18 11 7 8 6 8 8 4 1 359 355 350 354 348 348 348 342 338 333 326 310 277 262 252
185 203 215 215 223 230 253 241 236 228 203 204 207 196 182 172 169 163 143 108 69 48 35 29 18 13 10 6 1 3 3 3 357 357 356 350 344 349 349 348 344 345 339 335 335 326 314 320 289
217 211 203 203 200 242 258 257 170 219 226 227 204 183 176 173 168 162 150 142 87 43 32 27 15 11 5 0 359 1 360 360 358 356 353 349 348 348 343 348 345 341 342 336 334 331 327 334 326